User: anonymous
Location: Caltech
(34.1382°N, 118.1253°W)
Time: 12:36:07
(UTC-07:00)
Language:

Cosmos 1833 - Orbit

View from above orbital plane
View from above orbital plane
View from above satellite
View from above satellite

Ground track
Ground track

The orbit data is extracted from the following two-line orbital elements,

1 17589U 87027A   14211.14655086 -.00000235  00000-0 -10046-3 0  7712
2 17589 070.9103 237.6413 0006687 082.5964 333.6100 14.12809537411573
Epoch (UTC): 30 July 2014 03:31:01
Eccentricity: 0.0006687
inclination: 70.9103°
perigee height: 845 km
apogee height: 854 km
right ascension of ascending node: 237.6413°
argument of perigee: 82.5964°
revolutions per day: 14.12809537
mean anomaly at epoch: 333.6100°
orbit number at epoch: 41157

The dashed part of the orbit path shows where the satellite is in the earth's shadow,  

DLR